Starlink 34846

operational
NORAD ID: 66972 Int'l Des: 2025-288 Owner: SPXS Country: US Constellation: starlink
LEOCIRCULAR

Starlink 34846について

説明を読み込み中...

リアルタイム位置

3D地球を読み込み中...

次回通過

高度履歴

Altitude vs Time

uPlot chart will show altitude changes over time

軌道要素

1 66972C 25288P 25346.10743056 -.01055500 00000+0 -18669-2 0 3466
2 66972 43.0039 171.7877 0001788 271.9744 175.4784 16.01970248 12
Epoch: Dec 12, 2025 • Age: 55 hours

現在のステータス

高度 281.1 km
速度 7.74 km/s
衛星直下点 6.88°N, 136.86°E
打ち上げ日 Dec 8, 2025
運用期間 5 days
タイプ internet

技術仕様

分類 Payload
質量 575.00 kg
乾燥質量 530.00 kg
総質量 575.00 kg
長さ 0.30 m
直径 4.10 m
スパン 29.00 m
形状 Box + pan
製造者 SPXS
バスタイプ Starlink V2MO
フェーズステータス In Orbit
所有者/国 SPXS/US

大規模コンステレーション

Loading constellations...